Marysville, CA

12:37 PM PDT on March 30, 2017 (GMT -0700)
Yuba County

Weather History for KMYV - September, 2013

Change the Weather History Date:

Saturday, September 14, 2013

  Actual Average Record
Temperature  
Mean Temperature 76 °F -  
Max Temperature 91 °F 88 °F 107 °F (1953)
Min Temperature 61 °F 57 °F 48 °F (1966)
Cooling Degree Days 10    
Growing Degree Days 26 (Base 50)    
Moisture  
Dew Point 56 °F    
Average Humidity 57    
Maximum Humidity 81    
Minimum Humidity 34    
Precipitation  
Precipitation 0.00 in - - ()
Sea Level Pressure  
Sea Level Pressure 29.72 in    
Wind  
Wind Speed 5 mph (SSE)    
Max Wind Speed 10 mph    
Max Gust Speed -    
Visibility 10 miles    
Events      
Averages and records for this station are not official NWS values.
T = Trace of Precipitation, MM = Missing Value Source: NWS Daily Summary

Daily Weather History Graph

Daily Weather History Graph

Search for Another Location

Airport or City:

Trip Planner

Search our weather history database for the weather conditions in past years. The results will help you decide how hot, cold, wet, or windy it might be!

Date:

Astronomy

Sep. 14, 2013 Rise Set
Actual Time 6:47 AM PDT 7:15 PM PDT
Civil Twilight 6:20 AM PDT 7:42 PM PDT
Nautical Twilight 5:48 AM PDT 8:13 PM PDT
Astronomical Twilight 5:16 AM PDT 8:46 PM PDT
Moon 3:59 PM PDT (9/14) 1:26 AM PDT (9/14)
Length of Visible Light 13h 22m
Length of Day
12h 28m
Waxing Gibbous, 73% of the Moon is Illuminated
Sep 14
Waxing Gibbous
Sep 19
Full
Sep 26
Last Quarter
Oct 4
New
Oct 11
First Quarter

Hourly Weather History & Observations

Time (PDT) Temp. Heat Index Dew Point Humidity Pressure Visibility Wind Dir Wind Speed Gust Speed Precip Events Conditions
12:53 AM 68.0 °F - 55.9 °F 65% 29.71 in 10.0 mi SSE 5.8 mph - N/A   Clear
1:53 AM 66.9 °F - 55.0 °F 66% 29.71 in 10.0 mi South 3.5 mph - N/A   Clear
2:53 AM 66.0 °F - 55.0 °F 68% 29.72 in 10.0 mi SSE 3.5 mph - N/A   Clear
3:53 AM 64.0 °F - 55.0 °F 73% 29.73 in 10.0 mi Calm Calm - N/A   Clear
4:53 AM 63.0 °F - 55.0 °F 75% 29.74 in 10.0 mi Calm Calm - N/A   Clear
5:53 AM 62.1 °F - 54.0 °F 75% 29.75 in 10.0 mi Calm Calm - N/A   Clear
6:53 AM 61.0 °F - 55.0 °F 81% 29.76 in 10.0 mi SSE 5.8 mph - N/A   Clear
7:53 AM 63.0 °F - 55.0 °F 75% 29.77 in 10.0 mi SSE 8.1 mph - N/A   Clear
8:53 AM 66.9 °F - 55.0 °F 66% 29.78 in 10.0 mi SSE 9.2 mph - N/A   Clear
9:53 AM 71.1 °F - 55.9 °F 59% 29.78 in 10.0 mi South 5.8 mph - N/A   Clear
10:53 AM 75.9 °F - 57.0 °F 52% 29.78 in 10.0 mi Variable 6.9 mph - N/A   Clear
11:53 AM 80.1 °F 80.4 °F 57.0 °F 45% 29.77 in 10.0 mi Variable 4.6 mph - N/A   Clear
12:53 PM 84.0 °F 83.3 °F 57.0 °F 40% 29.74 in 10.0 mi Variable 4.6 mph - N/A   Clear
1:53 PM 86.0 °F 85.0 °F 57.9 °F 38% 29.72 in 10.0 mi South 5.8 mph - N/A   Clear
2:53 PM 88.0 °F 86.9 °F 57.9 °F 36% 29.70 in 10.0 mi Variable 4.6 mph - N/A   Clear
3:53 PM 90.0 °F 88.8 °F 57.9 °F 34% 29.68 in 10.0 mi SE 6.9 mph - N/A   Clear
4:53 PM 90.0 °F 88.8 °F 57.9 °F 34% 29.66 in 10.0 mi SE 9.2 mph - N/A   Clear
5:53 PM 89.1 °F 87.7 °F 57.0 °F 34% 29.65 in 10.0 mi SSE 10.4 mph - N/A   Clear
6:53 PM 84.9 °F 84.2 °F 57.9 °F 40% 29.65 in 10.0 mi South 9.2 mph - N/A   Clear
7:53 PM 79.0 °F - 59.0 °F 50% 29.65 in 10.0 mi South 10.4 mph - N/A   Clear
8:53 PM 73.9 °F - 57.9 °F 57% 29.68 in 10.0 mi South 9.2 mph - N/A   Clear
9:53 PM 70.0 °F - 57.9 °F 65% 29.69 in 10.0 mi SSE 9.2 mph - N/A   Clear
10:53 PM 68.0 °F - 57.0 °F 68% 29.69 in 10.0 mi SE 10.4 mph - N/A   Clear
11:53 PM 66.9 °F - 55.0 °F 66% 29.70 in 10.0 mi SE 10.4 mph - N/A   Clear